Ainsworth, NE

7:51 PM CDT on April 27, 2017 (GMT -0500)
Ainsworth Municipal

Weather History for KANW - January, 2014

Change the Weather History Date:

Monday, January 20, 2014

  Actual Average Record
Temperature  
Mean Temperature 22 °F -  
Max Temperature 40 °F 33 °F 60 °F (1997)
Min Temperature 3 °F 13 °F 1 °F (2011)
Degree Days  
Heating Degree Days 43    
Moisture  
Dew Point 15 °F    
Average Humidity 60    
Maximum Humidity 82    
Minimum Humidity 42    
Precipitation  
Precipitation 0.00 in - - ()
Sea Level Pressure  
Sea Level Pressure 30.16 in    
Wind  
Wind Speed 16 mph (NNW)    
Max Wind Speed 40 mph    
Max Gust Speed 52 mph    
Visibility 10 miles    
Events Snow    
Averages and records for this station are not official NWS values.
T = Trace of Precipitation, MM = Missing Value Source: NWS Daily Summary

Daily Weather History Graph

Daily Weather History Graph

Search for Another Location

Airport or City:

Trip Planner

Search our weather history database for the weather conditions in past years. The results will help you decide how hot, cold, wet, or windy it might be!

Date:

Astronomy

Jan. 20, 2014 Rise Set
Actual Time 8:04 AM CST 5:38 PM CST
Civil Twilight 7:33 AM CST 6:09 PM CST
Nautical Twilight 6:59 AM CST 6:43 PM CST
Astronomical Twilight 6:25 AM CST 7:17 PM CST
Moon 10:21 PM CST (1/20) 9:58 AM CST (1/20)
Length of Visible Light 10h 35m
Length of Day
9h 33m
Waning Gibbous, 82% of the Moon is Illuminated
Jan 20
Waning Gibbous
Jan 23
Last Quarter
Jan 30
New
Feb 6
First Quarter
Feb 14
Full

Hourly Weather History & Observations

Time (CST) Temp. Windchill Dew Point Humidity Pressure Visibility Wind Dir Wind Speed Gust Speed Precip Events Conditions
12:15 AM 34.7 °F 28.8 °F 24.3 °F 66% 29.88 in 10.0 mi West 6.9 mph - N/A   Clear
12:35 AM 34.7 °F 28.1 °F 23.9 °F 65% 29.89 in 10.0 mi WNW 8.1 mph - N/A   Clear
12:55 AM 34.9 °F 29.0 °F 23.7 °F 64% 29.90 in 10.0 mi WNW 6.9 mph - N/A   Clear
1:15 AM 35.6 °F 29.2 °F 23.7 °F 62% 29.89 in 10.0 mi NW 8.1 mph - N/A   Clear
1:35 AM 36.0 °F 30.3 °F 23.2 °F 60% 29.89 in 10.0 mi WNW 6.9 mph - N/A   Clear
1:55 AM 36.5 °F 29.7 °F 22.8 °F 58% 29.89 in 10.0 mi WNW 9.2 mph - N/A   Clear
2:15 AM 36.1 °F 29.3 °F 22.6 °F 58% 29.90 in 10.0 mi NW 9.2 mph - N/A   Clear
2:35 AM 36.0 °F 28.5 °F 22.3 °F 58% 29.91 in 10.0 mi NW 10.4 mph - N/A   Clear
2:55 AM 36.3 °F 28.9 °F 22.5 °F 57% 29.93 in 10.0 mi NW 10.4 mph - N/A   Clear
3:15 AM 37.0 °F 30.4 °F 22.6 °F 56% 29.94 in 10.0 mi NW 9.2 mph - N/A   Clear
3:35 AM 36.7 °F 29.4 °F 23.0 °F 58% 29.95 in 10.0 mi NW 10.4 mph - N/A   Clear
3:55 AM 37.6 °F 30.0 °F 22.6 °F 55% 29.95 in 10.0 mi NNW 11.5 mph - N/A   Clear
4:15 AM 37.4 °F 29.8 °F 22.5 °F 55% 29.96 in 10.0 mi NW 11.5 mph 16.1 mph N/A   Clear
4:35 AM 37.4 °F 28.5 °F 22.5 °F 55% 29.96 in 10.0 mi NNW 15.0 mph - N/A   Clear
4:55 AM 38.1 °F 29.5 °F 23.0 °F 55% 29.96 in 10.0 mi NNW 15.0 mph - N/A   Scattered Clouds
5:15 AM 38.3 °F 30.9 °F 23.0 °F 54% 29.97 in 10.0 mi NNW 11.5 mph - N/A   Mostly Cloudy
5:35 AM 38.3 °F 30.5 °F 22.6 °F 53% 29.98 in 10.0 mi NW 12.7 mph 18.4 mph N/A   Scattered Clouds
5:55 AM 37.9 °F 29.6 °F 22.6 °F 54% 29.99 in 10.0 mi NW 13.8 mph - N/A   Clear
6:15 AM 37.4 °F 28.5 °F 22.1 °F 54% 30.01 in 10.0 mi NW 15.0 mph - N/A   Clear
6:35 AM 36.9 °F 28.2 °F 22.1 °F 55% 30.02 in 10.0 mi NW 13.8 mph 18.4 mph N/A   Clear
6:55 AM 36.5 °F 27.0 °F 22.1 °F 56% 30.03 in 10.0 mi NW 16.1 mph 23.0 mph N/A   Clear
7:15 AM 35.8 °F 26.5 °F 21.9 °F 57% 30.03 in 10.0 mi NW 15.0 mph - N/A   Clear
7:35 AM 35.1 °F 25.5 °F 22.1 °F 59% 30.05 in 10.0 mi NW 15.0 mph - N/A   Clear
7:55 AM 34.3 °F 25.5 °F 22.1 °F 61% 30.06 in 10.0 mi WNW 12.7 mph - N/A   Clear
8:15 AM 34.3 °F 27.0 °F 22.6 °F 62% 30.06 in 10.0 mi WNW 9.2 mph 19.6 mph N/A   Clear
8:35 AM 35.1 °F 25.2 °F 22.6 °F 61% 30.07 in 10.0 mi WNW 16.1 mph 25.3 mph N/A   Clear
8:55 AM 36.5 °F 27.0 °F 22.5 °F 57% 30.07 in 10.0 mi WNW 16.1 mph 24.2 mph N/A   Mostly Cloudy
9:15 AM 37.4 °F 26.1 °F 21.7 °F 53% 30.08 in 10.0 mi NW 24.2 mph 31.1 mph N/A   Overcast
9:35 AM 38.3 °F 27.6 °F 21.0 °F 50% 30.08 in 10.0 mi NW 23.0 mph 35.7 mph N/A   Overcast
9:55 AM 38.7 °F 27.5 °F 20.7 °F 48% 30.09 in 10.0 mi NW 25.3 mph 34.5 mph N/A   Overcast
10:15 AM 38.8 °F 27.3 °F 20.3 °F 47% 30.10 in 10.0 mi NW 27.6 mph 42.6 mph N/A   Overcast
10:35 AM 38.8 °F 26.9 °F 20.8 °F 48% 30.11 in 10.0 mi NW 29.9 mph 44.9 mph N/A   Overcast
10:55 AM 38.7 °F 26.7 °F 20.7 °F 48% 30.11 in 10.0 mi NW 29.9 mph 42.6 mph N/A   Overcast
11:15 AM 38.8 °F 26.5 °F 20.1 °F 47% 30.11 in 10.0 mi NW 32.2 mph 40.3 mph N/A   Overcast
11:35 AM 38.8 °F 27.3 °F 19.4 °F 46% 30.11 in 10.0 mi NW 27.6 mph 44.9 mph N/A   Overcast
11:55 AM 39.2 °F 27.8 °F 19.6 °F 45% 30.10 in 10.0 mi WNW 27.6 mph 41.4 mph N/A   Overcast
12:15 PM 39.9 °F 28.0 °F 19.4 °F 44% 30.10 in 10.0 mi NW 32.2 mph 47.2 mph N/A   Overcast
12:35 PM 40.5 °F 28.0 °F 18.7 °F 42% 30.10 in 10.0 mi NW 36.8 mph 49.5 mph N/A   Overcast
12:55 PM 35.6 °F 20.8 °F 26.6 °F 70% 30.14 in 5.0 mi NNW 40.3 mph 51.8 mph N/A Snow Light Snow
1:15 PM 35.2 °F 21.2 °F 23.2 °F 62% 30.15 in 10.0 mi NNW 34.5 mph 44.9 mph N/A   Mostly Cloudy
1:35 PM 33.1 °F 17.5 °F 17.2 °F 52% 30.17 in 10.0 mi NNW 39.1 mph 48.3 mph N/A   Overcast
1:55 PM 32.0 °F 16.5 °F 16.3 °F 52% 30.19 in 10.0 mi NNW 35.7 mph 43.7 mph N/A   Overcast
2:15 PM 31.3 °F 17.1 °F 14.4 °F 50% 30.20 in 10.0 mi NW 27.6 mph 50.6 mph N/A   Overcast
2:35 PM 30.9 °F 16.2 °F 13.5 °F 48% 30.21 in 10.0 mi NNW 29.9 mph 43.7 mph N/A   Overcast
2:55 PM 29.3 °F 13.5 °F 11.8 °F 48% 30.23 in 10.0 mi NNW 32.2 mph 47.2 mph N/A   Overcast
3:15 PM 27.9 °F 11.3 °F 11.7 °F 51% 30.25 in 10.0 mi NNW 33.4 mph 50.6 mph N/A   Scattered Clouds
3:35 PM 26.4 °F 9.5 °F 10.6 °F 51% 30.27 in 10.0 mi NNW 32.2 mph 43.7 mph N/A   Clear
3:55 PM 23.9 °F 5.9 °F 9.1 °F 53% 30.29 in 10.0 mi NNW 33.4 mph 44.9 mph N/A   Clear
4:15 PM 22.3 °F 5.0 °F 8.8 °F 56% 30.29 in 10.0 mi North 27.6 mph 38.0 mph N/A   Clear
4:35 PM 20.3 °F 3.0 °F 7.7 °F 58% 30.30 in 10.0 mi NNW 25.3 mph 34.5 mph N/A   Clear
4:55 PM 18.5 °F 1.6 °F 6.1 °F 58% 30.32 in 10.0 mi NNW 21.9 mph 34.5 mph N/A   Clear
5:15 PM 17.2 °F -1.5 °F 5.4 °F 60% 30.34 in 10.0 mi NNW 26.5 mph 33.4 mph N/A   Clear
5:35 PM 16.0 °F -1.7 °F 5.4 °F 63% 30.33 in 10.0 mi North 21.9 mph 27.6 mph N/A   Clear
5:55 PM 14.5 °F -4.7 °F 5.0 °F 66% 30.34 in 10.0 mi North 25.3 mph 31.1 mph N/A   Clear
6:15 PM 13.8 °F -5.7 °F 4.6 °F 67% 30.35 in 10.0 mi North 25.3 mph 31.1 mph N/A   Clear
6:35 PM 12.7 °F -6.0 °F 5.0 °F 71% 30.37 in 10.0 mi North 21.9 mph 27.6 mph N/A   Clear
6:55 PM 11.1 °F -6.2 °F 3.2 °F 70% 30.38 in 10.0 mi North 17.3 mph 26.5 mph N/A   Clear
7:15 PM 10.4 °F -9.1 °F 3.2 °F 73% 30.38 in 10.0 mi North 21.9 mph 26.5 mph N/A   Clear
7:35 PM 9.9 °F -9.3 °F 2.8 °F 73% 30.40 in 10.0 mi North 20.7 mph 27.6 mph N/A   Clear
7:55 PM 9.3 °F -10.5 °F 2.1 °F 73% 30.41 in 10.0 mi North 21.9 mph 27.6 mph N/A   Clear
8:15 PM 8.6 °F -7.7 °F 2.3 °F 76% 30.42 in 10.0 mi North 13.8 mph 21.9 mph N/A   Clear
8:35 PM 8.2 °F -9.4 °F 2.1 °F 76% 30.42 in 10.0 mi North 16.1 mph - N/A   Clear
8:55 PM 7.7 °F -6.6 °F 1.4 °F 75% 30.43 in 10.0 mi North 10.4 mph - N/A   Clear
9:15 PM 7.3 °F -10.6 °F 1.0 °F 75% 30.44 in 10.0 mi North 16.1 mph 19.6 mph N/A   Clear
9:35 PM 6.8 °F -10.0 °F 0.5 °F 75% 30.43 in 10.0 mi North 13.8 mph - N/A   Clear
9:55 PM 6.4 °F -9.8 °F 0.5 °F 77% 30.43 in 10.0 mi North 12.7 mph - N/A   Clear
10:15 PM 5.9 °F -9.7 °F 0.5 °F 78% 30.43 in 10.0 mi North 11.5 mph - N/A   Clear
10:35 PM 5.5 °F -9.3 °F 0.5 °F 80% 30.43 in 10.0 mi North 10.4 mph - N/A   Clear
10:55 PM 5.0 °F -11.6 °F -0.4 °F 78% 30.43 in 10.0 mi North 12.7 mph - N/A   Clear
11:15 PM 4.8 °F -8.3 °F -0.6 °F 78% 30.43 in 10.0 mi North 8.1 mph - N/A   Clear
11:35 PM 4.1 °F -6.7 °F -0.8 °F 80% 30.43 in 10.0 mi North 5.8 mph - N/A   Clear
11:55 PM 3.7 °F -7.1 °F -0.8 °F 82% 30.43 in 10.0 mi North 5.8 mph - N/A   Clear